Tiempo atmosférico en la estación meteorológica de Cañaveral, Cáceres (373 m.)



Fecha
DESCASC
Temp. máxima en grados centígrados (hora)
DESCASC
Temp. mínima en grados centígrados (hora)
DESCASC
Temp. media en grados centígrados
DESCASC
Racha de viento máxima en m/sg (hora)
DESCASC
Velocidad máxima media en intervalos de 10 minutos(hora)
DESCASC
Precipitaciones diarias en mm
DESCASC
Precipitaciones de 00:00 a 06:00 en mm
DESCASC
Precipitaciones de 06:00 a 12:00 en mm
DESCASC
Precipitaciones de 12:00 a 18:00 en mm
DESCASC
Precipitaciones de 18:00 a 24:00 en mm
DESCASC
26-11-2020 11 (00:20) 9 (23:20) 10 10 (11:30) 6.39 (11:10) 12.8 6 3.2 3.2 0.4
25-11-2020 11.4 (19:40) 9 (04:20) 10.2 10.83 (23:10) 6.11 (15:10) 28.8 0 23.8 2.2 2.8
24-11-2020 15.7 (14:40) 8 (08:50) 11.8 4.17 (15:00) 2.5 (18:40) 0 0 0 0 0
23-11-2020 17.3 (15:30) 6.4 (06:20) 11.8 6.11 (11:50) 3.89 (12:40) 0 0 0 0 0
22-11-2020 17.2 (16:30) 8.1 (00:00) 12.7 7.22 (11:10) 4.72 (04:10) 0 0 0 0 0
21-11-2020 17 (15:30) 9.9 (00:00) 13.4 8.33 (06:50) 5.28 (05:30) 0 0 0 0 0
20-11-2020 18.9 (15:10) 12.1 (00:00) 15.5 8.06 (09:50) 5.56 (04:20) 0 0 0 0 0
19-11-2020 21.9 (16:00) 9.4 (00:00) 15.6 10.83 (22:20) 7.22 (21:40) 0 0 0 0 0
18-11-2020 17.4 (15:00) 10 (00:00) 13.7 6.11 (10:10) 4.44 (15:10) 0 0 0 0 0
17-11-2020 18 (16:10) 8.5 (00:00) 13.3 5 (22:30) 3.33 (22:30) 0.2 0.2 0 0 0
16-11-2020 19.7 (16:10) 11.5 (00:00) 15.6 4.17 (13:20) 2.78 (12:40) 0 0 0 0 0
15-11-2020 20.1 (14:50) 13.4 (00:00) 16.8 7.22 (14:40) 4.44 (13:50) 0.2 0.2 0 0 0
14-11-2020 14.3 (16:40) 12.9 (00:00) 13.6 6.11 (10:40) 3.89 (10:50) 3.2 0 1.2 1.6 0.4
13-11-2020 15.1 (15:20) 10.6 (00:00) 12.9 6.94 (12:10) 4.17 (11:30) 0 0 0 0 0
12-11-2020 16.4 (15:50) 10.7 (00:00) 13.5 9.72 (12:10) 6.11 (12:20) 0 0 0 0 0
11-11-2020 18 (15:40) 9.6 (00:00) 13.8 7.5 (11:10) 5 (11:20) 0 0 0 0 0
10-11-2020 18.2 (16:30) 7.9 (00:00) 13.1 5.28 (05:30) 3.61 (05:20) 0.2 0 0.2 0 0
09-11-2020 17.8 (16:00) 11.7 (00:00) 14.7 5.28 (14:00) 3.61 (14:00) 0.2 0.2 0 0 0
08-11-2020 15.5 (13:40) 12.2 (00:00) 13.8 9.72 (10:30) 6.11 (10:40) 15.2 0.4 0.8 11.4 2.6
07-11-2020 18 (16:10) 12.1 (00:00) 15.1 9.17 (15:50) 5.83 (14:50) 5.2 4 0.8 0.4 0
06-11-2020 17.5 (14:30) 12.4 (00:00) 14.9 19.72 (10:40) 11.94 (10:30) 12.8 2.4 0.4 0.4 9.6
05-11-2020 13.8 (13:00) 11.2 (00:00) 12.5 17.78 (07:40) 11.67 (07:10) 12.4 6 4.2 2.2 0
04-11-2020 14.8 (00:00) 9.9 (00:00) 12.3 14.72 (20:10) 10 (20:10) 3.4 0 0 0.4 3
03-11-2020 19.8 (15:10) 13.7 (00:00) 16.7 16.11 (09:20) 12.22 (09:40) 0 0 0 0 0
02-11-2020 19.3 (14:10) 14.8 (00:00) 17 6.11 (21:10) 4.17 (21:10) 0 0 0 0 0
01-11-2020 21.8 (16:00) 11.3 (00:00) 16.5 5 (16:30) 3.61 (16:30) 0 0 0 0 0
31-10-2020 24.2 (15:20) 11.9 (00:00) 18.1 5.83 (15:50) 3.89 (22:40) 0 0 0 0 0
30-10-2020 22.7 (15:50) 12.1 (00:00) 17.4 8.89 (12:20) 6.11 (12:10) 0 0 0 0 0
29-10-2020 20.3 (15:50) 13.4 (00:00) 16.8 8.33 (11:20) 5.28 (11:30) 0 0 0 0 0
28-10-2020 16.5 (16:10) 12.5 (00:00) 14.5 5 (17:00) 3.61 (17:10) 3.4 0 2.6 0.8 0

Gráficas

Temp. máximas Temp. mínimas Temp. medias Precipitaciones Rachas de viento máximas Velocidades máximas media en intervalos de 10 minutos

Datos horarios

Fecha y hora oficial Temperatura (ºC) Velocidad del viento (km/h) Dirección del viento Racha (km/h) Dirección de racha Precipitación (mm) Presión (hPa) Tendencia (hPa) Humedad (%)
2020-11-26 23:00:00 9.2 10 Nordeste 21 Este 0 -- -- 90
2020-11-26 22:00:00 9.5 13 Nordeste 20 Este 0 -- -- 91
2020-11-26 21:00:00 9.8 10 Este 24 Este 0 -- -- 91
2020-11-26 20:00:00 9.8 11 Nordeste 15 Nordeste 0 -- -- 93
2020-11-26 19:00:00 10 10 Sudeste 20 Sudeste 0.4 -- -- 94
2020-11-26 18:00:00 10.5 8 Este 15 Este 0.6 -- -- 95
2020-11-26 17:00:00 10.6 9 Este 19 Nordeste 0.8 -- -- 94
2020-11-26 16:00:00 10.9 10 Este 22 Este 0 -- -- 93
2020-11-26 15:00:00 10.8 15 Este 27 Este 0.2 -- -- 94
2020-11-26 14:00:00 10.6 17 Este 33 Este 0.6 -- -- 95
2020-11-26 13:00:00 10.4 18 Este 31 Este 1 -- -- 95
2020-11-26 12:00:00 10.2 20 Este 36 Este 1 -- -- 95
2020-11-26 11:00:00 10 20 Este 32 Este 1.8 -- -- 95
2020-11-26 10:00:00 10 18 Este 28 Este 0 -- -- 92
2020-11-26 09:00:00 9.2 14 Este 30 Este 0.4 -- -- 94
2020-11-26 08:00:00 10.1 19 Este 32 Este 0 -- -- 92
2020-11-26 07:00:00 10.2 16 Este 25 Sudeste 0 -- -- 92
2020-11-26 06:00:00 10.2 14 Este 23 Este 0.2 -- -- 96
2020-11-26 05:00:00 10.2 14 Este 30 Este 0.6 -- -- 96
2020-11-26 04:00:00 10.2 15 Este 29 Este 1.4 -- -- 96
2020-11-26 03:00:00 10.3 14 Este 32 Este 2.6 -- -- 95
2020-11-26 02:00:00 10.5 19 Este 28 Este 1 -- -- 93
2020-11-26 01:00:00 10.9 14 Este 26 Este 0.2 -- -- 92
2020-11-26 00:00:00 10.8 10 Este 39 Este 0.2 -- -- 94
2020-11-25 23:00:00 11.3 14 Este 24 Este 0 -- -- 92
2020-11-25 22:00:00 11.2 12 Sudeste 21 Sudeste 0 -- -- 94
2020-11-25 21:00:00 11.3 13 Sudeste 26 Sudeste 0 -- -- 95
2020-11-25 20:00:00 11.4 15 Sudeste 31 Sudeste 0 -- -- 96
2020-11-25 19:00:00 11.1 13 Este 32 Este 2.6 -- -- 96
2020-11-25 18:00:00 11 18 Este 34 Este 0 -- -- 95
2020-11-25 17:00:00 11.1 19 Este 33 Este 0 -- -- 95
2020-11-25 16:00:00 11 17 Este 34 Este 0 -- -- 95
2020-11-25 15:00:00 10.7 18 Este 32 Este 0 -- -- 95
2020-11-25 14:00:00 10.3 17 Este 30 Este 0.4 -- -- 96
2020-11-25 13:00:00 10.2 18 Este 30 Este 1.8 -- -- 96
2020-11-25 12:00:00 9.7 20 Este 37 Este 3.6 -- -- 95
2020-11-25 11:00:00 9.7 15 Este 27 Este 5.6 -- -- 95
2020-11-25 10:00:00 9.8 10 Este 17 Este 8.6 -- -- 95
2020-11-25 09:00:00 9.5 13 Este 27 Este 4.2 -- -- 95
2020-11-25 08:00:00 9.4 9 Nordeste 17 Este 1.6 -- -- 94
2020-11-25 07:00:00 9.5 8 Este 17 Este 0.2 -- -- 92
2020-11-25 06:00:00 9.4 10 Nordeste 15 Nordeste 0 -- -- 90
2020-11-25 05:00:00 9.1 6 Este 10 Este 0 -- -- 90
2020-11-25 04:00:00 9.1 4 Este 9 Este 0 -- -- 88
2020-11-25 03:00:00 9.6 7 Este 11 Este 0 -- -- 85
2020-11-25 02:00:00 9.7 6 Nordeste 11 Nordeste 0 -- -- 85
2020-11-25 01:00:00 10.1 8 Nordeste 11 Nordeste 0 -- -- 85
2020-11-25 00:00:00 10.9 6 Este 9 Nordeste 0 -- -- 82
2020-11-24 23:00:00 11.3 5 Nordeste 7 Este 0 -- -- 79
2020-11-24 22:00:00 11.1 5 Nordeste 8 Nordeste 0 -- -- 80
2020-11-24 21:00:00 11.6 5 Nordeste 6 Este 0 -- -- 79
2020-11-24 20:00:00 12.1 4 Este 7 Nordeste 0 -- -- 78
2020-11-24 19:00:00 12.8 4 Nordeste 11 Norte 0 -- -- 74
2020-11-24 18:00:00 14 2 Nordeste 5 Nordeste 0 -- -- 70
2020-11-24 17:00:00 15.2 3 Sur 9 Sur 0 -- -- 63
2020-11-24 16:00:00 15 6 Sur 15 Sur 0 -- -- 63
2020-11-24 15:00:00 15.5 8 Sur 15 Sur 0 -- -- 61
2020-11-24 14:00:00 14.5 4 Este 10 Este 0 -- -- 64
2020-11-24 13:00:00 13.9 6 Sudeste 10 Sudeste 0 -- -- 62
2020-11-24 12:00:00 13.5 4 Sudeste 10 Sudeste 0 -- -- 65
2020-11-24 11:00:00 12.2 6 Sudeste 11 Este 0 -- -- 71
2020-11-24 10:00:00 9.7 4 Este 10 Nordeste 0 -- -- 83
2020-11-24 09:00:00 8.2 9 Nordeste 13 Nordeste 0 -- -- 83
2020-11-24 08:00:00 8.7 4 Nordeste 12 Nordeste 0 -- -- 78
2020-11-24 07:00:00 8.8 8 Nordeste 13 Nordeste 0 -- -- 82
2020-11-24 06:00:00 9.1 9 Nordeste 14 Nordeste 0 -- -- 81
2020-11-24 05:00:00 9.9 8 Nordeste 10 Nordeste 0 -- -- 77
2020-11-24 04:00:00 9.9 4 Nordeste 12 Nordeste 0 -- -- 76
2020-11-24 03:00:00 10.1 5 Nordeste 11 Nordeste 0 -- -- 75
2020-11-24 02:00:00 10.2 5 Nordeste 12 Nordeste 0 -- -- 75
2020-11-24 01:00:00 11 7 Nordeste 13 Este 0 -- -- 71
2020-11-24 00:00:00 11.8 7 Nordeste 13 Nordeste 0 -- -- 67
2020-11-23 23:00:00 11.6 8 Nordeste 11 Norte 0 -- -- 68
2020-11-23 22:00:00 11.5 6 Nordeste 9 Nordeste 0 -- -- 64
2020-11-23 21:00:00 12.1 5 Nordeste 6 Nordeste 0 -- -- 62
2020-11-23 20:00:00 12 4 Nordeste 6 Nordeste 0 -- -- 68
2020-11-23 19:00:00 12.9 2 Nordeste 8 Nordeste 0 -- -- 66
2020-11-23 18:00:00 14.2 6 Nordeste 14 Norte 0 -- -- 64
2020-11-23 17:00:00 16.5 7 Norte 12 Norte 0 -- -- 58
2020-11-23 16:00:00 17 4 Nordeste 10 Este 0 -- -- 50
2020-11-23 15:00:00 17 3 Este 17 Este 0 -- -- 51
2020-11-23 14:00:00 16 7 Este 18 Este 0 -- -- 55
2020-11-23 13:00:00 14.7 12 Este 22 Este 0 -- -- 63
2020-11-23 12:00:00 13.3 12 Este 22 Este 0 -- -- 69
2020-11-23 11:00:00 11.8 11 Este 17 Este 0 -- -- 74
2020-11-23 10:00:00 9.8 4 Este 8 Nordeste 0 -- -- 82
2020-11-23 09:00:00 7.5 4 Nordeste 6 Este 0 -- -- 87
2020-11-23 08:00:00 7.5 4 Nordeste 8 Este 0 -- -- 86
2020-11-23 07:00:00 6.8 5 Nordeste 8 Este 0 -- -- 88
2020-11-23 06:00:00 6.6 0 Calma 7 Nordeste 0 -- -- 86
2020-11-23 05:00:00 8.4 6 Nordeste 8 Nordeste 0 -- -- 81
2020-11-23 04:00:00 7.8 0 Calma 4 Oeste 0 -- -- 82
2020-11-23 03:00:00 8 2 Noroeste 5 Este 0 -- -- 80
2020-11-23 02:00:00 9.1 3 Nordeste 5 Nordeste 0 -- -- 73
2020-11-23 01:00:00 8.9 0 Calma 3 Este 0 -- -- 78
2020-11-23 00:00:00 9.6 0 Calma 5 Oeste 0 -- -- 75
2020-11-22 23:00:00 10.9 4 Norte 9 Nordeste 0 -- -- 69
2020-11-22 22:00:00 11.6 5 Nordeste 12 Nordeste 0 -- -- 67
2020-11-22 21:00:00 10.7 8 Nordeste 10 Nordeste 0 -- -- 73
2020-11-22 20:00:00 11.3 8 Nordeste 11 Nordeste 0 -- -- 72
2020-11-22 19:00:00 12.7 5 Nordeste 12 Norte 0 -- -- 68
2020-11-22 18:00:00 15.3 3 Nordeste 12 Sudeste 0 -- -- 59
2020-11-22 17:00:00 16.8 5 Nordeste 20 Norte 0 -- -- 56
2020-11-22 16:00:00 17 6 Este 14 Este 0 -- -- 53
2020-11-22 15:00:00 16.6 8 Este 18 Este 0 -- -- 52
2020-11-22 14:00:00 16 11 Este 21 Este 0 -- -- 55
2020-11-22 13:00:00 15.5 10 Este 16 Este 0 -- -- 56
2020-11-22 12:00:00 13.9 13 Este 26 Este 0 -- -- 59
2020-11-22 11:00:00 12.2 12 Nordeste 21 Nordeste 0 -- -- 64
2020-11-22 10:00:00 10.5 5 Este 15 Este 0 -- -- 70
2020-11-22 09:00:00 8.3 8 Este 15 Este 0 -- -- 75
2020-11-22 08:00:00 8.2 8 Nordeste 14 Nordeste 0 -- -- 74
2020-11-22 07:00:00 9 11 Nordeste 19 Nordeste 0 -- -- 70
2020-11-22 06:00:00 9.8 12 Nordeste 17 Nordeste 0 -- -- 66
2020-11-22 05:00:00 9.8 12 Nordeste 24 Este 0 -- -- 65
2020-11-22 04:00:00 10.5 17 Este 24 Este 0 -- -- 61
2020-11-22 03:00:00 10.6 13 Nordeste 25 Nordeste 0 -- -- 59
2020-11-22 02:00:00 11.3 14 Nordeste 24 Nordeste 0 -- -- 56
2020-11-22 01:00:00 11.9 15 Nordeste 24 Nordeste 0 -- -- 55
2020-11-22 00:00:00 12 15 Nordeste 24 Nordeste 0 -- -- 56
2020-11-21 23:00:00 12.2 16 Nordeste 24 Nordeste 0 -- -- 57
2020-11-21 22:00:00 12 15 Nordeste 24 Nordeste 0 -- -- 59
2020-11-21 21:00:00 12.3 14 Nordeste 23 Nordeste 0 -- -- 56
2020-11-21 20:00:00 12.5 14 Nordeste 22 Nordeste 0 -- -- 53
2020-11-21 19:00:00 13.1 13 Nordeste 18 Nordeste 0 -- -- 45
2020-11-21 18:00:00 14.6 10 Nordeste 21 Este 0 -- -- 46
2020-11-21 17:00:00 16.3 17 Este 27 Este 0 -- -- 40
2020-11-21 16:00:00 16.8 16 Este 25 Este 0 -- -- 39
2020-11-21 15:00:00 16.6 18 Este 28 Este 0 -- -- 38
2020-11-21 14:00:00 16 15 Este 24 Este 0 -- -- 45
2020-11-21 13:00:00 14.9 15 Este 26 Este 0 -- -- 47
2020-11-21 12:00:00 14.4 17 Este 28 Este 0 -- -- 46
2020-11-21 11:00:00 13.7 15 Este 29 Este 0 -- -- 45
2020-11-21 10:00:00 10.2 4 Oeste 14 Este 0 -- -- 67
2020-11-21 09:00:00 10.1 4 Nordeste 20 Este 0 -- -- 57
2020-11-21 08:00:00 10.4 14 Nordeste 22 Nordeste 0 -- -- 50
2020-11-21 07:00:00 11.7 17 Nordeste 30 Este 0 -- -- 46
2020-11-21 06:00:00 10.4 15 Nordeste 28 Nordeste 0 -- -- 57
2020-11-21 05:00:00 11.7 12 Este 21 Nordeste 0 -- -- 53
2020-11-21 04:00:00 11.7 15 Nordeste 22 Este 0 -- -- 56
2020-11-21 03:00:00 10.7 10 Nordeste 15 Nordeste 0 -- -- 66
2020-11-21 02:00:00 13.5 10 Nordeste 17 Nordeste 0 -- -- 53
2020-11-21 01:00:00 10.3 3 Nordeste 10 Nordeste 0 -- -- 75
2020-11-21 00:00:00 12.7 4 Nordeste 17 Norte 0 -- -- 57
2020-11-20 23:00:00 14.9 9 Nordeste 19 Nordeste 0 -- -- 48
2020-11-20 22:00:00 14.5 12 Nordeste 17 Nordeste 0 -- -- 48
2020-11-20 21:00:00 15.2 9 Nordeste 18 Nordeste 0 -- -- 46
2020-11-20 20:00:00 14.9 12 Nordeste 21 Nordeste 0 -- -- 51
2020-11-20 19:00:00 15.2 5 Nordeste 19 Norte 0 -- -- 53
2020-11-20 18:00:00 16.2 10 Norte 19 Nordeste 0 -- -- 55
2020-11-20 17:00:00 18.1 10 Norte 24 Nordeste 0 -- -- 57
2020-11-20 16:00:00 18.5 14 Nordeste 25 Este 0 -- -- 56
2020-11-20 15:00:00 18.8 12 Norte 21 Norte 0 -- -- 57
2020-11-20 14:00:00 18.5 11 Norte 23 Este 0 -- -- 56
2020-11-20 13:00:00 17.8 11 Nordeste 22 Nordeste 0 -- -- 60
2020-11-20 12:00:00 17 12 Nordeste 18 Nordeste 0 -- -- 61
2020-11-20 11:00:00 15.6 10 Norte 24 Norte 0 -- -- 67
2020-11-20 10:00:00 14.6 17 Norte 29 Nordeste 0 -- -- 68
2020-11-20 09:00:00 13.3 12 Nordeste 22 Norte 0 -- -- 73
2020-11-20 08:00:00 12.4 7 Nordeste 18 Nordeste 0 -- -- 77
2020-11-20 07:00:00 13.3 12 Nordeste 28 Norte 0 -- -- 75
2020-11-20 06:00:00 14.1 11 Nordeste 27 Nordeste 0 -- -- 75
2020-11-20 05:00:00 14.7 17 Norte 28 Norte 0 -- -- 73
2020-11-20 04:00:00 14.9 11 Nordeste 21 Nordeste 0 -- -- 75
2020-11-20 03:00:00 15.6 14 Norte 28 Norte 0 -- -- 75
2020-11-20 02:00:00 16.5 12 Nordeste 22 Nordeste 0 -- -- 65
2020-11-20 01:00:00 16.4 10 Nordeste 27 Norte 0 -- -- 65
2020-11-20 00:00:00 16.6 18 Norte 37 Norte 0 -- -- 66
2020-11-19 23:00:00 16.4 21 Norte 39 Norte 0 -- -- 68
2020-11-19 22:00:00 17.3 15 Norte 36 Norte 0 -- -- 65
2020-11-19 21:00:00 18.6 15 Norte 24 Norte 0 -- -- 60
2020-11-19 20:00:00 16.3 5 Nordeste 12 Norte 0 -- -- 70
2020-11-19 19:00:00 17.2 5 Nordeste 9 Este 0 -- -- 69
2020-11-19 18:00:00 19.3 4 Este 7 Sudeste 0 -- -- 64
2020-11-19 17:00:00 21.4 4 Sudeste 10 Sudeste 0 -- -- 59
2020-11-19 16:00:00 21.9 6 Nordeste 21 Norte 0 -- -- 54
2020-11-19 15:00:00 21.3 8 Nordeste 16 Este 0 -- -- 60
2020-11-19 14:00:00 20.7 5 Este 24 Este 0 -- -- 66
2020-11-19 13:00:00 19.9 10 Nordeste 26 Nordeste 0 -- -- 59
2020-11-19 12:00:00 17.8 7 Nordeste 31 Norte 0 -- -- 71
2020-11-19 11:00:00 13.3 9 Norte 24 Norte 0 -- -- 99
2020-11-19 10:00:00 11.5 2 Sudoeste 6 Este 0 -- -- 99
2020-11-19 09:00:00 9.7 3 Norte 11 Este 0 -- -- 99
2020-11-19 08:00:00 10.1 2 Noroeste 8 Sudoeste 0 -- -- 98
2020-11-19 07:00:00 10.1 0 Calma 13 Este 0 -- -- 98
2020-11-19 06:00:00 10.2 9 Este 17 Nordeste 0 -- -- 98
2020-11-19 05:00:00 10.1 8 Nordeste 14 Nordeste 0 -- -- 98
2020-11-19 04:00:00 10.4 8 Nordeste 13 Nordeste 0 -- -- 98
2020-11-19 03:00:00 11 6 Nordeste 17 Este 0 -- -- 98
2020-11-19 02:00:00 10.4 10 Este 19 Este 0 -- -- 98
2020-11-19 01:00:00 10.3 11 Nordeste 19 Este 0 -- -- 97
2020-11-19 00:00:00 10.3 13 Nordeste 19 Este 0 -- -- 97
2020-11-18 23:00:00 10.8 14 Este 18 Este 0 -- -- 95
2020-11-18 22:00:00 11.2 9 Nordeste 19 Nordeste 0 -- -- 94
2020-11-18 21:00:00 11.9 4 Nordeste 17 Este 0 -- -- 91
2020-11-18 20:00:00 11.9 14 Este 17 Este 0 -- -- 92
2020-11-18 19:00:00 12.5 12 Nordeste 16 Este 0 -- -- 91
2020-11-18 18:00:00 14.2 8 Este 18 Este 0 -- -- 85
2020-11-18 17:00:00 16.2 10 Este 17 Este 0 -- -- 81
2020-11-18 16:00:00 16.9 11 Este 20 Este 0 -- -- 78
2020-11-18 15:00:00 17.4 11 Este 21 Este 0 -- -- 77
2020-11-18 14:00:00 16.9 10 Este 18 Este 0 -- -- 80
2020-11-18 13:00:00 16.5 11 Este 17 Este 0 -- -- 82
2020-11-18 12:00:00 14.4 10 Este 19 Este 0 -- -- 92
2020-11-18 11:00:00 12.4 12 Nordeste 22 Nordeste 0 -- -- 99
2020-11-18 10:00:00 11.2 11 Nordeste 19 Nordeste 0 -- -- 98
2020-11-18 09:00:00 10.2 12 Nordeste 19 Nordeste 0 -- -- 98
2020-11-18 08:00:00 10 12 Nordeste 18 Nordeste 0 -- -- 98
2020-11-18 07:00:00 10.3 12 Nordeste 19 Nordeste 0 -- -- 97
2020-11-18 06:00:00 10.8 11 Nordeste 17 Nordeste 0 -- -- 96
2020-11-18 05:00:00 11.6 12 Nordeste 17 Nordeste 0 -- -- 94
2020-11-18 04:00:00 12.2 7 Nordeste 13 Nordeste 0 -- -- 91
2020-11-18 03:00:00 13.7 7 Nordeste 14 Nordeste 0 -- -- 86
2020-11-18 02:00:00 13.7 8 Nordeste 12 Nordeste 0 -- -- 87
2020-11-18 01:00:00 14.7 8 Nordeste 16 Nordeste 0 -- -- 82
2020-11-18 00:00:00 14 11 Nordeste 15 Nordeste 0 -- -- 89
2020-11-17 23:00:00 14.3 10 Nordeste 18 Nordeste 0 -- -- 86
2020-11-17 22:00:00 14.8 9 Nordeste 16 Nordeste 0 -- -- 83
2020-11-17 21:00:00 15.1 8 Nordeste 15 Nordeste 0 -- -- 80
2020-11-17 20:00:00 15.3 10 Nordeste 15 Nordeste 0 -- -- 78
2020-11-17 19:00:00 15.8 8 Nordeste 12 Nordeste 0 -- -- 80
2020-11-17 18:00:00 16.8 6 Nordeste 9 Este 0 -- -- 81
2020-11-17 17:00:00 17.8 6 Este 10 Nordeste 0 -- -- 76
2020-11-17 16:00:00 17.9 6 Este 12 Este 0 -- -- 76
2020-11-17 15:00:00 17.2 6 Este 12 Este 0 -- -- 83
2020-11-17 14:00:00 14.6 8 Este 14 Este 0 -- -- 98
2020-11-17 13:00:00 13.2 6 Nordeste 14 Sudeste 0 -- -- 98
2020-11-17 12:00:00 12.8 9 Nordeste 16 Este 0 -- -- 98
2020-11-17 11:00:00 12.2 10 Nordeste 15 Nordeste 0 -- -- 99
2020-11-17 10:00:00 10.4 8 Nordeste 13 Nordeste 0 -- -- 98
2020-11-17 09:00:00 8.9 0 Calma 6 Este 0 -- -- 98
2020-11-17 08:00:00 8.9 3 Nordeste 8 Oeste 0 -- -- 98
2020-11-17 07:00:00 11 5 Nordeste 9 Este 0 -- -- 98
2020-11-17 06:00:00 9.2 3 Nordeste 6 Este 0 -- -- 97
2020-11-17 05:00:00 10.2 3 Nordeste 8 Nordeste 0.2 -- -- 96
2020-11-17 04:00:00 9.4 2 Oeste 10 Nordeste 0 -- -- 95
2020-11-17 03:00:00 12.6 9 Nordeste 10 Nordeste 0 -- -- 96
2020-11-17 02:00:00 12.4 5 Nordeste 8 Norte 0 -- -- 95
2020-11-17 01:00:00 12.9 6 Nordeste 9 Nordeste 0 -- -- 95
2020-11-17 00:00:00 12.5 6 Nordeste 12 Este 0 -- -- 93
2020-11-16 23:00:00 12.6 6 Nordeste 11 Nordeste 0 -- -- 93
2020-11-16 22:00:00 12.6 2 Sur 5 Este 0 -- -- 92
2020-11-16 21:00:00 13.1 0 Calma 5 Este 0 -- -- 90
2020-11-16 20:00:00 14.5 0 Calma 4 Sudeste 0 -- -- 87
2020-11-16 19:00:00 15.3 0 Calma 5 Oeste 0 -- -- 85
2020-11-16 18:00:00 18.1 6 Oeste 12 Oeste 0 -- -- 74
2020-11-16 17:00:00 19.4 3 Oeste 13 Oeste 0 -- -- 65
2020-11-16 16:00:00 19.5 9 Sudoeste 14 Sudoeste 0 -- -- 68
2020-11-16 15:00:00 19.3 7 Sudoeste 14 Sur 0 -- -- 75
2020-11-16 14:00:00 18.3 8 Sudoeste 15 Sudoeste 0 -- -- 81
2020-11-16 13:00:00 16.5 6 Sudoeste 13 Sudoeste 0 -- -- 90
2020-11-16 12:00:00 15.6 5 Sudoeste 12 Oeste 0 -- -- 95
2020-11-16 11:00:00 14.7 2 Sudeste 8 Sur 0 -- -- 98
2020-11-16 10:00:00 13.9 4 Sudeste 9 Sudeste 0 -- -- 98
2020-11-16 09:00:00 13.5 0 Calma 8 Oeste 0 -- -- 98
2020-11-16 08:00:00 13.8 4 Sudoeste 10 Sudoeste 0 -- -- 97
2020-11-16 07:00:00 14.4 3 Oeste 9 Sudoeste 0 -- -- 97
2020-11-16 06:00:00 14.2 0 Calma 5 Oeste 0 -- -- 97
2020-11-16 05:00:00 13.7 0 Calma 5 Sudoeste 0 -- -- 97
2020-11-16 04:00:00 14.4 3 Oeste 5 Noroeste 0 -- -- 96
2020-11-16 03:00:00 14.8 2 Sudoeste 5 Sudoeste 0 -- -- 95
2020-11-16 02:00:00 15.2 0 Calma 6 Nordeste 0 -- -- 94
2020-11-16 01:00:00 15.7 3 Este 8 Sudeste 0 -- -- 91
2020-11-16 00:00:00 16.9 3 Oeste 10 Oeste 0 -- -- 88
2020-11-15 23:00:00 16.8 2 Noroeste 8 Noroeste 0 -- -- 90
2020-11-15 22:00:00 16.6 5 Oeste 9 Nordeste 0 -- -- 91
2020-11-15 21:00:00 17.1 3 Norte 8 Nordeste 0 -- -- 88
2020-11-15 20:00:00 17.7 5 Nordeste 14 Norte 0 -- -- 85
2020-11-15 19:00:00 18.1 5 Nordeste 6 Nordeste 0 -- -- 84
2020-11-15 18:00:00 18.7 4 Este 9 Sudoeste 0 -- -- 83
2020-11-15 17:00:00 19.4 8 Sudoeste 20 Sudoeste 0 -- -- 79
2020-11-15 16:00:00 19.8 10 Sudoeste 22 Sudoeste 0 -- -- 76
2020-11-15 15:00:00 20 14 Sudoeste 26 Oeste 0 -- -- 75
2020-11-15 14:00:00 20 13 Sudoeste 25 Sudoeste 0 -- -- 78
2020-11-15 13:00:00 18.1 14 Sur 23 Sudoeste 0 -- -- 84
2020-11-15 12:00:00 17.2 12 Sur 22 Sur 0 -- -- 90
2020-11-15 11:00:00 16.5 12 Sur 18 Sur -- -- -- 95
2020-11-15 10:00:00 15.4 3 Sur 6 Sur 0 -- -- 96
2020-11-15 09:00:00 14.9 0 Calma 3 Oeste 0 -- -- 97
2020-11-15 08:00:00 14.7 2 Sur 5 Sudeste 0 -- -- 97
2020-11-15 07:00:00 14.6 2 Oeste 5 Oeste 0 -- -- 97
2020-11-15 06:00:00 14.5 0 Calma 8 Este 0.2 -- -- 97
2020-11-15 05:00:00 14.4 4 Este 8 Este 0 -- -- 97
2020-11-15 04:00:00 14.3 2 Nordeste 8 Este 0 -- -- 97
2020-11-15 03:00:00 14.1 3 Nordeste 11 Nordeste 0 -- -- 96
2020-11-15 02:00:00 13.9 2 Nordeste 11 Este 0 -- -- 97
2020-11-15 01:00:00 13.6 5 Nordeste 13 Este 0 -- -- 97
2020-11-15 00:00:00 13.4 6 Nordeste 15 Este 0 -- -- 97
2020-11-14 23:00:00 13.5 5 Nordeste 14 Nordeste 0 -- -- 96
2020-11-14 22:00:00 13.5 9 Nordeste 13 Nordeste 0.4 -- -- 96
2020-11-14 21:00:00 13.3 6 Nordeste 14 Nordeste 0 -- -- 96
2020-11-14 20:00:00 13 5 Nordeste 11 Nordeste 0 -- -- 96
2020-11-14 19:00:00 13.7 5 Nordeste 14 Nordeste 0 -- -- 95
2020-11-14 18:00:00 13.9 8 Este 15 Este 0 -- -- 95
2020-11-14 17:00:00 14.3 6 Nordeste 16 Este 0.4 -- -- 96
2020-11-14 16:00:00 14.2 4 Nordeste 15 Este 0.6 -- -- 96
2020-11-14 15:00:00 14 11 Este 17 Este 0 -- -- 96
2020-11-14 14:00:00 13.9 7 Este 16 Este 0.4 -- -- 96
2020-11-14 13:00:00 13.7 9 Este 18 Este 0.2 -- -- 95
2020-11-14 12:00:00 13.7 10 Este 17 Este 1 -- -- 95
2020-11-14 11:00:00 13.7 11 Este 22 Este 0 -- -- 92
2020-11-14 10:00:00 13.3 9 Nordeste 18 Este 0.2 -- -- 93
2020-11-14 09:00:00 13.4 6 Este 13 Nordeste 0 -- -- 91
2020-11-14 08:00:00 13.4 6 Este 14 Nordeste 0 -- -- 91
2020-11-14 07:00:00 13.2 10 Nordeste 17 Nordeste 0 -- -- 90
2020-11-14 06:00:00 13.2 12 Este 19 Este 0 -- -- 88
2020-11-14 05:00:00 13.6 9 Este 16 Este 0 -- -- 84
2020-11-14 04:00:00 13.8 10 Este 15 Este 0 -- -- 81
2020-11-14 03:00:00 13.9 6 Nordeste 14 Nordeste 0 -- -- 79
2020-11-14 02:00:00 14 6 Nordeste 14 Nordeste 0 -- -- 77
2020-11-14 01:00:00 14 10 Nordeste 18 Este 0 -- -- 75
2020-11-14 00:00:00 14 10 Nordeste 17 Nordeste 0 -- -- 75
2020-11-13 23:00:00 14.1 9 Nordeste 18 Nordeste 0 -- -- 76
2020-11-13 22:00:00 14 9 Nordeste 15 Nordeste 0 -- -- 79
2020-11-13 21:00:00 14 7 Nordeste 12 Nordeste 0 -- -- 80
2020-11-13 20:00:00 14.1 6 Nordeste 12 Nordeste 0 -- -- 79
2020-11-13 19:00:00 14 9 Nordeste 18 Este 0 -- -- 80
2020-11-13 18:00:00 14.2 14 Este 21 Este 0 -- -- 79
2020-11-13 17:00:00 14.8 10 Este 19 Este 0 -- -- 77
2020-11-13 16:00:00 15.1 12 Este 20 Nordeste 0 -- -- 74
2020-11-13 15:00:00 14.8 12 Nordeste 20 Este 0 -- -- 73
2020-11-13 14:00:00 14.2 8 Este 21 Este 0 -- -- 76
2020-11-13 13:00:00 14.1 12 Este 25 Este 0 -- -- 73
2020-11-13 12:00:00 13.9 13 Este 23 Este 0 -- -- 74
2020-11-13 11:00:00 13 12 Este 21 Este 0 -- -- 79
2020-11-13 10:00:00 11.8 9 Este 15 Nordeste 0 -- -- 84
2020-11-13 09:00:00 10.9 10 Nordeste 16 Nordeste 0 -- -- 85
2020-11-13 08:00:00 10.7 9 Nordeste 17 Nordeste 0 -- -- 86
2020-11-13 07:00:00 10.9 10 Nordeste 15 Nordeste 0 -- -- 86
2020-11-13 06:00:00 11.9 11 Nordeste 17 Nordeste 0 -- -- 81
2020-11-13 05:00:00 12.4 12 Nordeste 18 Nordeste 0 -- -- 79
2020-11-13 04:00:00 12.5 11 Nordeste 17 Nordeste 0 -- -- 78
2020-11-13 03:00:00 12.5 10 Nordeste 15 Nordeste 0 -- -- 79
2020-11-13 02:00:00 12.5 5 Nordeste 18 Nordeste 0 -- -- 79
2020-11-13 01:00:00 13.4 11 Nordeste 19 Este 0 -- -- 77
2020-11-13 00:00:00 13.6 13 Nordeste 21 Nordeste 0 -- -- 76
2020-11-12 23:00:00 13.6 17 Nordeste 24 Nordeste 0 -- -- 76
2020-11-12 22:00:00 13.7 13 Nordeste 19 Nordeste 0 -- -- 75
2020-11-12 21:00:00 13.5 13 Nordeste 23 Este 0 -- -- 76
2020-11-12 20:00:00 13.3 12 Nordeste 17 Nordeste 0 -- -- 77
2020-11-12 19:00:00 13.6 10 Nordeste 16 Nordeste 0 -- -- 77
2020-11-12 18:00:00 15 12 Este 25 Este 0 -- -- 72
2020-11-12 17:00:00 16.1 17 Este 26 Este 0 -- -- 66
2020-11-12 16:00:00 16.4 13 Este 26 Este 0 -- -- 66
2020-11-12 15:00:00 15.9 17 Nordeste 28 Este 0 -- -- 68
2020-11-12 14:00:00 15.7 17 Este 26 Este 0 -- -- 70
2020-11-12 13:00:00 15.5 17 Este 35 Este 0 -- -- 71
2020-11-12 12:00:00 14.4 21 Este 34 Este 0 -- -- 77
2020-11-12 11:00:00 12.8 13 Este 21 Nordeste 0 -- -- 85
2020-11-12 10:00:00 11.7 13 Nordeste 20 Nordeste 0 -- -- 85
2020-11-12 09:00:00 10.9 12 Este 17 Este 0 -- -- 88
2020-11-12 08:00:00 10.9 6 Nordeste 13 Este 0 -- -- 88
2020-11-12 07:00:00 11.8 8 Nordeste 12 Nordeste 0 -- -- 83
2020-11-12 06:00:00 11.6 6 Nordeste 9 Nordeste 0 -- -- 85
2020-11-12 05:00:00 11.9 4 Este 8 Nordeste 0 -- -- 82
2020-11-12 04:00:00 11.9 8 Nordeste 18 Nordeste 0 -- -- 80
2020-11-12 03:00:00 12.5 9 Nordeste 13 Nordeste 0 -- -- 76
2020-11-12 02:00:00 11.9 9 Nordeste 12 Nordeste 0 -- -- 76
2020-11-12 01:00:00 12.3 4 Nordeste 12 Nordeste 0 -- -- 78
2020-11-12 00:00:00 13.4 10 Nordeste 14 Nordeste 0 -- -- 72
2020-11-11 23:00:00 13.7 8 Nordeste 14 Nordeste 0 -- -- 74
2020-11-11 22:00:00 14.8 7 Nordeste 14 Nordeste 0 -- -- 67
2020-11-11 21:00:00 14.6 8 Nordeste 14 Nordeste 0 -- -- 69
2020-11-11 20:00:00 14.6 9 Nordeste 14 Nordeste 0 -- -- 70
2020-11-11 19:00:00 15 9 Nordeste 15 Nordeste 0 -- -- 67
2020-11-11 18:00:00 15.8 5 Nordeste 13 Este 0 -- -- 69
2020-11-11 17:00:00 17.8 8 Este 14 Este 0 -- -- 62
2020-11-11 16:00:00 17.9 8 Este 15 Este 0 -- -- 61
2020-11-11 15:00:00 17.6 9 Este 15 Sudeste 0 -- -- 61
2020-11-11 14:00:00 17.6 8 Este 18 Este 0 -- -- 62
2020-11-11 13:00:00 17 12 Este 17 Sudeste 0 -- -- 62
2020-11-11 12:00:00 15.8 14 Este 27 Este 0 -- -- 68
2020-11-11 11:00:00 14.8 16 Este 26 Este 0 -- -- 71
2020-11-11 10:00:00 13 14 Este 22 Este 0 -- -- 78
2020-11-11 09:00:00 10.9 12 Nordeste 23 Nordeste 0 -- -- 84
2020-11-11 08:00:00 9.7 12 Nordeste 22 Nordeste 0 -- -- 91
2020-11-11 07:00:00 9.9 10 Nordeste 17 Nordeste 0 -- -- 91
2020-11-11 06:00:00 10.7 12 Nordeste 19 Nordeste 0 -- -- 88
2020-11-11 05:00:00 10.8 13 Nordeste 21 Nordeste 0 -- -- 88
2020-11-11 04:00:00 11.5 14 Nordeste 21 Nordeste 0 -- -- 85
2020-11-11 03:00:00 11.9 13 Nordeste 19 Nordeste 0 -- -- 83
2020-11-11 02:00:00 11.9 13 Nordeste 19 Nordeste 0 -- -- 84
2020-11-11 01:00:00 12.5 10 Nordeste 16 Nordeste 0 -- -- 82
2020-11-11 00:00:00 13.3 11 Nordeste 15 Nordeste 0 -- -- 77
2020-11-10 23:00:00 13.8 12 Nordeste 15 Nordeste 0 -- -- 76
2020-11-10 22:00:00 13.8 11 Nordeste 17 Nordeste 0 -- -- 76
2020-11-10 21:00:00 14.1 9 Nordeste 13 Nordeste 0 -- -- 75
2020-11-10 20:00:00 13.7 9 Norte 10 Norte 0 -- -- 77
2020-11-10 19:00:00 14.4 7 Nordeste 8 Norte 0 -- -- 77
2020-11-10 18:00:00 16.4 4 Nordeste 10 Este 0 -- -- 72
2020-11-10 17:00:00 17.7 5 Este 11 Este -- -- -- 63
2020-11-10 16:00:00 17.9 3 Este 11 Sudeste -- -- -- 62
2020-11-10 15:00:00 17.1 8 Este 17 Este 0 -- -- 67
2020-11-10 14:00:00 15.9 10 Sudeste 18 Sudeste 0 -- -- 78
2020-11-10 13:00:00 14.6 11 Este 18 Este 0 -- -- 86
2020-11-10 12:00:00 12.9 10 Este 17 Este 0 -- -- 94
2020-11-10 11:00:00 11.3 9 Nordeste 13 Este 0 -- -- 96
2020-11-10 10:00:00 10.4 9 Este 13 Este 0 -- -- 96
2020-11-10 09:00:00 8 0 Calma 10 Este 0 -- -- 97
2020-11-10 08:00:00 8.1 8 Este 12 Este 0 -- -- 96
2020-11-10 07:00:00 8.6 3 Este 10 Este 0.2 -- -- 94
2020-11-10 06:00:00 10.1 4 Este 19 Norte 0 -- -- 89
2020-11-10 05:00:00 11.1 8 Norte 13 Norte 0 -- -- 90
2020-11-10 04:00:00 10.1 0 Calma 10 Norte 0 -- -- 94
2020-11-10 03:00:00 9.4 0 Calma 6 Norte 0 -- -- 96
2020-11-10 02:00:00 10.4 0 Calma 7 Nordeste 0 -- -- 93
2020-11-10 01:00:00 11.3 0 Calma 5 Norte 0 -- -- 94
2020-11-10 00:00:00 12 0 Calma 9 Noroeste 0 -- -- 91
2020-11-09 23:00:00 12.6 3 Sudoeste 10 Norte 0 -- -- 87
2020-11-09 22:00:00 12.9 7 Norte 10 Nordeste 0 -- -- 87
2020-11-09 21:00:00 13.2 4 Norte 11 Norte 0 -- -- 86
2020-11-09 20:00:00 13.5 3 Norte 6 Norte 0 -- -- 83
2020-11-09 19:00:00 14.4 0 Calma 9 Sudoeste 0 -- -- 79
2020-11-09 18:00:00 16.1 7 Sudoeste 11 Sudoeste 0 -- -- 74
2020-11-09 17:00:00 16.5 6 Oeste 11 Oeste 0 -- -- 72
2020-11-09 16:00:00 17.8 8 Sudoeste 14 Sudoeste 0 -- -- 67
2020-11-09 15:00:00 15.9 5 Oeste 18 Oeste 0 -- -- 82
2020-11-09 14:00:00 16.9 13 Sudoeste 19 Oeste 0 -- -- 75
2020-11-09 13:00:00 15.6 8 Sudoeste 14 Sudoeste 0 -- -- 78
2020-11-09 12:00:00 14.1 4 Oeste 12 Sudoeste 0 -- -- 86
2020-11-09 11:00:00 13.8 11 Oeste 14 Oeste 0 -- -- 93
2020-11-09 10:00:00 13.1 5 Sur 9 Sudoeste 0 -- -- 96
2020-11-09 09:00:00 12.7 4 Sur 10 Nordeste 0 -- -- 96
2020-11-09 08:00:00 12.2 3 Nordeste 7 Nordeste 0 -- -- 96
2020-11-09 07:00:00 11.7 0 Calma 6 Sudoeste 0 -- -- 96
2020-11-09 06:00:00 11.9 0 Calma 4 Sudeste 0 -- -- 95
2020-11-09 05:00:00 12.6 4 Oeste 6 Oeste 0 -- -- 95
2020-11-09 04:00:00 12.9 3 Nordeste 5 Este 0 -- -- 95
2020-11-09 03:00:00 13.5 3 Este 7 Sudoeste 0.2 -- -- 96
2020-11-09 02:00:00 13.6 0 Calma 8 Este 0 -- -- 96
2020-11-09 01:00:00 13.7 0 Calma 10 Este 0 -- -- 96
2020-11-09 00:00:00 13.8 6 Este 10 Sudeste 0 -- -- 96
2020-11-08 23:00:00 14.1 5 Sudeste 8 Sudeste 0 -- -- 96
2020-11-08 22:00:00 14 6 Sur 25 Sudeste 0.6 -- -- 96
2020-11-08 21:00:00 13.8 8 Sudeste 15 Este 0.6 -- -- 96
2020-11-08 20:00:00 14 3 Este 8 Sudeste 0.4 -- -- 95
2020-11-08 19:00:00 14.1 0 Calma 12 Sur 1 -- -- 94
2020-11-08 18:00:00 14.3 7 Sur 13 Sur 6 -- -- 94
2020-11-08 17:00:00 14.6 3 Oeste 12 Sur 5 -- -- 92
2020-11-08 16:00:00 15 3 Sudeste 18 Sudeste 0.4 -- -- 87
2020-11-08 15:00:00 15.2 15 Sudeste 28 Sudeste 0 -- -- 84
2020-11-08 14:00:00 15.5 14 Sudeste 31 Sudeste 0 -- -- 81
2020-11-08 13:00:00 14.9 15 Sudeste 30 Sudeste 0 -- -- 83
2020-11-08 12:00:00 14.6 14 Sur 25 Sudeste 0 -- -- 84
2020-11-08 11:00:00 14.9 18 Sudeste 35 Sudeste 0 -- -- 82
2020-11-08 10:00:00 13.2 11 Sudeste 21 Sudeste 0 -- -- 91
2020-11-08 09:00:00 12.5 4 Sudeste 15 Este 0.2 -- -- 92
2020-11-08 08:00:00 12.2 3 Nordeste 8 Este 0 -- -- 93
2020-11-08 07:00:00 12.3 6 Este 18 Este 0.6 -- -- 93
2020-11-08 06:00:00 12.4 6 Este 13 Este 0.4 -- -- 91
2020-11-08 05:00:00 12.5 5 Nordeste 12 Este 0 -- -- 89
2020-11-08 04:00:00 12.5 6 Este 11 Nordeste 0 -- -- 87
2020-11-08 03:00:00 12.5 5 Este 9 Este 0 -- -- 87
2020-11-08 02:00:00 12.5 4 Nordeste 9 Sudeste 0 -- -- 85
2020-11-08 01:00:00 13.1 5 Sudeste 17 Sudeste 0 -- -- 82
2020-11-08 00:00:00 13.8 9 Sudeste 14 Sudeste 0 -- -- 79
2020-11-07 23:00:00 13.7 5 Norte 12 Nordeste 0 -- -- 81
2020-11-07 22:00:00 14.2 3 Este 9 Sudeste 0 -- -- 77
2020-11-07 21:00:00 14.6 4 Sur 10 Sudeste 0 -- -- 77
2020-11-07 20:00:00 14.6 5 Sudeste 10 Sudeste 0 -- -- 77
2020-11-07 19:00:00 14.7 4 Sudeste 17 Sur 0 -- -- 75
2020-11-07 18:00:00 16.2 12 Sur 23 Sudoeste 0 -- -- 69
2020-11-07 17:00:00 16.3 16 Sur 30 Sur 0 -- -- 69
2020-11-07 16:00:00 17.7 16 Sur 33 Sudoeste 0 -- -- 64
2020-11-07 15:00:00 16.7 18 Sudoeste 32 Sur 0 -- -- 71
2020-11-07 14:00:00 15.7 15 Sudoeste 27 Sudoeste 0 -- -- 74
2020-11-07 13:00:00 15 13 Oeste 28 Sudoeste 0.4 -- -- 81
2020-11-07 12:00:00 14.1 16 Sudoeste 26 Sudoeste 0.2 -- -- 87
2020-11-07 11:00:00 13.6 16 Sudoeste 23 Sudoeste 0 -- -- 89
2020-11-07 10:00:00 12.8 10 Sudoeste 15 Sur 0 -- -- 95
2020-11-07 09:00:00 12.1 3 Sudoeste 16 Sudoeste 0 -- -- 95
2020-11-07 08:00:00 12.1 10 Sudoeste 17 Sudoeste 0 -- -- 96
2020-11-07 07:00:00 12.4 6 Oeste 15 Sur 0.6 -- -- 96
2020-11-07 06:00:00 12.6 5 Sudeste 13 Sudeste 0.8 -- -- 95
2020-11-07 05:00:00 12.5 5 Nordeste 13 Este 0 -- -- 95
2020-11-07 04:00:00 12.4 5 Nordeste 14 Este 0 -- -- 95
2020-11-07 03:00:00 12.4 8 Este 13 Este 0.4 -- -- 94
2020-11-07 02:00:00 12.4 4 Nordeste 8 Este 1.2 -- -- 93
2020-11-07 01:00:00 12.6 3 Noroeste 9 Sudeste 1.6 -- -- 93
2020-11-07 00:00:00 12.5 4 Este 17 Sudeste 4.6 -- -- 92
2020-11-06 23:00:00 12.6 10 Sudeste 17 Sudeste 2.8 -- -- 91
2020-11-06 22:00:00 12.6 10 Sudeste 16 Sur 0.6 -- -- 91
2020-11-06 21:00:00 12.6 11 Sur 19 Oeste 1.2 -- -- 90
2020-11-06 20:00:00 12.5 11 Sudoeste 25 Oeste 0.4 -- -- 90
2020-11-06 19:00:00 12.7 11 Sur 22 Sudoeste 0 -- -- 87
2020-11-06 18:00:00 13.2 30 Sudoeste 51 Sudoeste 0.4 -- -- 85
2020-11-06 17:00:00 17.1 16 Este 31 Este 0 -- -- 80
2020-11-06 16:00:00 17.3 17 Este 35 Este 0 -- -- 78
2020-11-06 15:00:00 17.4 22 Este 35 Este 0 -- -- 77
2020-11-06 14:00:00 17.3 19 Este 33 Este 0 -- -- 76
2020-11-06 13:00:00 16.7 23 Este 39 Este 0 -- -- 79
2020-11-06 12:00:00 15.7 21 Este 53 Este 0 -- -- 81
2020-11-06 11:00:00 14.9 36 Este 71 Este 0 -- -- 83
2020-11-06 10:00:00 14.3 41 Este 61 Este 0 -- -- 86
2020-11-06 09:00:00 13.7 35 Este 52 Este 0 -- -- 87
2020-11-06 08:00:00 13.6 17 Este 28 Este 0.2 -- -- 86
2020-11-06 07:00:00 13.6 14 Este 33 Este 0.2 -- -- 86
2020-11-06 06:00:00 13.8 22 Este 37 Este 0 -- -- 85
2020-11-06 05:00:00 13.4 14 Este 32 Este 0 -- -- 88
2020-11-06 04:00:00 12.9 15 Este 26 Este 0 -- -- 90
2020-11-06 03:00:00 12.9 10 Nordeste 19 Nordeste 0 -- -- 88
2020-11-06 02:00:00 12.5 7 Norte 38 Este 2.4 -- -- 92
2020-11-06 01:00:00 13.2 26 Este 43 Este 0 -- -- 85
2020-11-06 00:00:00 13.2 30 Este 48 Este 0 -- -- 84
2020-11-05 23:00:00 12.7 28 Este 50 Este 0 -- -- 85
2020-11-05 22:00:00 12.7 28 Este 43 Este 0 -- -- 85
2020-11-05 21:00:00 12.1 25 Este 37 Este 0 -- -- 89
2020-11-05 20:00:00 12.2 19 Este 32 Este 0 -- -- 89
2020-11-05 19:00:00 12.1 22 Este 35 Este 0 -- -- 89
2020-11-05 18:00:00 12.4 23 Este 36 Nordeste 0 -- -- 91
2020-11-05 17:00:00 12.6 15 Nordeste 36 Este 0.8 -- -- 92
2020-11-05 16:00:00 13.1 23 Este 36 Este 0 -- -- 92
2020-11-05 15:00:00 12.9 24 Este 38 Este 0.8 -- -- 94
2020-11-05 14:00:00 12.9 21 Este 42 Este 0.6 -- -- 92
2020-11-05 13:00:00 13.8 27 Este 42 Este 0 -- -- 88
2020-11-05 12:00:00 13 30 Este 45 Este 0.2 -- -- 91
2020-11-05 11:00:00 11.7 28 Este 53 Este 0.8 -- -- 93
2020-11-05 10:00:00 11.3 38 Este 60 Este 1.4 -- -- 93
2020-11-05 09:00:00 11.5 33 Este 54 Este 0.6 -- -- 92
2020-11-05 08:00:00 11.4 32 Este 64 Este 0.4 -- -- 92
2020-11-05 07:00:00 11.4 36 Este 59 Este 0.8 -- -- 92
2020-11-05 06:00:00 11.3 29 Este 62 Este 1 -- -- 93
2020-11-05 05:00:00 11.3 33 Este 60 Este 2 -- -- 92
2020-11-05 04:00:00 11.2 37 Este 62 Este 0.8 -- -- 92
2020-11-05 03:00:00 11.4 36 Este 60 Este 0.2 -- -- 90
2020-11-05 02:00:00 11.3 34 Este 53 Este 0 -- -- 90
2020-11-05 01:00:00 11.2 27 Este 44 Este 2 -- -- 92
2020-11-05 00:00:00 11.3 24 Este 49 Este 2.6 -- -- 93
2020-11-04 23:00:00 11.7 33 Este 51 Este 0.2 -- -- 90
2020-11-04 22:00:00 11.2 29 Este 50 Este 0 -- -- 88
2020-11-04 21:00:00 11.1 31 Este 53 Este 0 -- -- 88
2020-11-04 20:00:00 10.8 27 Este 47 Este 0.2 -- -- 89
2020-11-04 19:00:00 10.6 26 Este 49 Este 0 -- -- 89
2020-11-04 18:00:00 10.9 31 Este 53 Este 0 -- -- 85
2020-11-04 17:00:00 10.9 27 Este 45 Este 0 -- -- 85
2020-11-04 16:00:00 11.1 29 Este 47 Este 0 -- -- 82
2020-11-04 15:00:00 11.4 26 Este 47 Nordeste 0.4 -- -- 84
2020-11-04 14:00:00 12.1 21 Nordeste 40 Nordeste 0 -- -- 75
2020-11-04 13:00:00 12.4 26 Nordeste 41 Nordeste 0 -- -- 71
2020-11-04 12:00:00 12.5 28 Nordeste 44 Nordeste 0 -- -- 69
2020-11-04 11:00:00 11.6 21 Norte 37 Norte 0 -- -- 70
2020-11-04 10:00:00 10.6 20 Norte 37 Norte 0 -- -- 71
2020-11-04 09:00:00 10.1 23 Norte 40 Norte 0 -- -- 74
2020-11-04 08:00:00 10.1 24 Norte 42 Norte 0 -- -- 75
2020-11-04 07:00:00 10.3 26 Norte 40 Norte 0 -- -- 75
2020-11-04 06:00:00 11 27 Norte 38 Norte 0 -- -- 76
2020-11-04 05:00:00 12.3 17 Norte 31 Norte 0 -- -- 72
2020-11-04 04:00:00 12.1 17 Nordeste 32 Norte 0 -- -- 73
2020-11-04 03:00:00 13.2 18 Norte 30 Norte 0 -- -- 71
2020-11-04 02:00:00 14.2 20 Nordeste 32 Nordeste 0 -- -- 69
2020-11-04 01:00:00 14.5 18 Nordeste 31 Nordeste 0 -- -- 70
2020-11-04 00:00:00 14.8 17 Nordeste 31 Nordeste 0 -- -- 70
2020-11-03 23:00:00 14.8 22 Norte 33 Norte 0 -- -- 68
2020-11-03 22:00:00 14.7 22 Norte 35 Norte 0 -- -- 66
2020-11-03 21:00:00 15.3 23 Norte 39 Norte 0 -- -- 63
2020-11-03 20:00:00 15.4 26 Norte 43 Norte 0 -- -- 65
2020-11-03 19:00:00 15.7 27 Norte 42 Norte 0 -- -- 68
2020-11-03 18:00:00 16.4 30 Norte 40 Norte 0 -- -- 67
2020-11-03 17:00:00 18.3 24 Norte 40 Norte 0 -- -- 63
2020-11-03 16:00:00 18.4 21 Norte 38 Norte 0 -- -- 62
2020-11-03 15:00:00 19.7 21 Norte 35 Norte 0 -- -- 59
2020-11-03 14:00:00 19.5 23 Norte 38 Norte 0 -- -- 58
2020-11-03 13:00:00 18 27 Norte 46 Norte 0 -- -- 59
2020-11-03 12:00:00 17.4 35 Norte 58 Norte 0 -- -- 60
2020-11-03 11:00:00 15.3 38 Norte 58 Norte 0 -- -- 67
2020-11-03 10:00:00 14.3 41 Norte 58 Norte 0 -- -- 66
2020-11-03 09:00:00 14.1 41 Norte 55 Norte 0 -- -- 63
2020-11-03 08:00:00 14.5 26 Norte 41 Norte 0 -- -- 72
2020-11-03 07:00:00 14.1 25 Norte 44 Noroeste 0 -- -- 70
2020-11-03 06:00:00 15.9 5 Este 44 Norte 0 -- -- 77
2020-11-03 05:00:00 15.6 30 Norte 41 Norte 0 -- -- 81
2020-11-03 04:00:00 15.8 5 Norte 9 Norte 0 -- -- 89
2020-11-03 03:00:00 15.5 0 Calma 8 Nordeste 0 -- -- 91
2020-11-03 02:00:00 15.7 2 Sudoeste 9 Sudoeste 0 -- -- 90
2020-11-03 01:00:00 16.3 3 Oeste 8 Sudoeste 0 -- -- 87
2020-11-03 00:00:00 16 3 Sudeste 9 Sudeste 0 -- -- 87
2020-11-02 23:00:00 16.5 3 Este 8 Sur 0 -- -- 82
2020-11-02 22:00:00 17.1 3 Este 22 Oeste 0 -- -- 77
2020-11-02 21:00:00 17.3 14 Oeste 19 Oeste 0 -- -- 78
2020-11-02 20:00:00 17 4 Oeste 9 Oeste 0 -- -- 80
2020-11-02 19:00:00 17.4 0 Calma 8 Oeste 0 -- -- 80
2020-11-02 18:00:00 18.1 6 Sudoeste 9 Sudoeste 0 -- -- 82
2020-11-02 17:00:00 18.4 6 Oeste 9 Oeste 0 -- -- 80
2020-11-02 16:00:00 18.8 5 Sudoeste 11 Oeste 0 -- -- 80
2020-11-02 15:00:00 19.1 4 Sudoeste 12 Sur 0 -- -- 79
2020-11-02 14:00:00 19.2 4 Sudoeste 10 Sur 0 -- -- 78
2020-11-02 13:00:00 18.5 4 Sudoeste 9 Sudoeste 0 -- -- 81
2020-11-02 12:00:00 17.2 3 Sur 6 Sudoeste 0 -- -- 87
2020-11-02 11:00:00 16.2 0 Calma 4 Sudoeste 0 -- -- 90
2020-11-02 10:00:00 15.5 2 Sur 4 Sur 0 -- -- 92
2020-11-02 09:00:00 14.9 3 Este 4 Este 0 -- -- 92
2020-11-02 08:00:00 14.9 2 Sudoeste 4 Nordeste 0 -- -- 90
2020-11-02 07:00:00 14.9 2 Nordeste 6 Nordeste 0 -- -- 90
2020-11-02 06:00:00 15.1 4 Nordeste 6 Nordeste 0 -- -- 89
2020-11-02 05:00:00 15.2 3 Este 6 Este 0 -- -- 89
2020-11-02 04:00:00 15.2 4 Este 5 Nordeste 0 -- -- 89
2020-11-02 03:00:00 15.5 2 Este 4 Sudeste 0 -- -- 88
2020-11-02 02:00:00 15.6 2 Sudeste 4 Este 0 -- -- 86
2020-11-02 01:00:00 15.9 0 Calma 5 Este 0 -- -- 85
2020-11-02 00:00:00 16.2 0 Calma 4 Noroeste 0 -- -- 82
2020-11-01 23:00:00 16.6 0 Calma 5 Este 0 -- -- 79
2020-11-01 22:00:00 16.7 3 Oeste 5 Sudeste 0 -- -- 79
2020-11-01 21:00:00 16.9 4 Este 9 Sudeste 0 -- -- 77
2020-11-01 20:00:00 17.3 3 Nordeste 6 Nordeste 0 -- -- 74
2020-11-01 19:00:00 18.2 0 Calma 7 Este 0 -- -- 74
2020-11-01 18:00:00 19.3 3 Nordeste 11 Oeste 0 -- -- 70
2020-11-01 17:00:00 20.3 8 Oeste 18 Oeste 0 -- -- 64
2020-11-01 16:00:00 21.8 6 Sudoeste 14 Sudoeste 0 -- -- 62
2020-11-01 15:00:00 21.1 7 Sudoeste 12 Sudoeste 0 -- -- 60
2020-11-01 14:00:00 20.1 6 Sudoeste 12 Sudoeste 0 -- -- 69
2020-11-01 13:00:00 18.6 3 Oeste 11 Sudeste 0 -- -- 76
2020-11-01 12:00:00 15.8 3 Sur 8 Sudeste 0 -- -- 92
2020-11-01 11:00:00 14 4 Sudeste 6 Sudeste 0 -- -- 97
2020-11-01 10:00:00 12.5 3 Este 6 Nordeste 0 -- -- 97
2020-11-01 09:00:00 11.5 2 Nordeste 6 Nordeste 0 -- -- 97
2020-11-01 08:00:00 11.5 0 Calma 8 Nordeste 0 -- -- 96
2020-11-01 07:00:00 11.6 4 Nordeste 6 Nordeste 0 -- -- 95
2020-11-01 06:00:00 12.3 0 Calma 4 Sudoeste 0 -- -- 93
2020-11-01 05:00:00 12.6 2 Sudeste 5 Nordeste 0 -- -- 93
2020-11-01 04:00:00 13 4 Nordeste 5 Este 0 -- -- 91
2020-11-01 03:00:00 14.1 0 Calma 5 Sudoeste 0 -- -- 87
2020-11-01 02:00:00 14.5 3 Sur 6 Sudoeste 0 -- -- 86
2020-11-01 01:00:00 15.1 2 Sur 7 Sudoeste 0 -- -- 84
2020-11-01 00:00:00 15.7 3 Sudeste 14 Sudoeste 0 -- -- 81
2020-10-31 23:00:00 17 14 Oeste 20 Oeste 0 -- -- 76
2020-10-31 22:00:00 17.1 6 Sudoeste 8 Oeste 0 -- -- 71
2020-10-31 21:00:00 17 4 Este 6 Este 0 -- -- 71
2020-10-31 20:00:00 18.7 0 Calma 8 Noroeste 0 -- -- 65
2020-10-31 19:00:00 19.4 4 Noroeste 12 Oeste 0 -- -- 61
2020-10-31 18:00:00 22.2 11 Oeste 14 Sudoeste 0 -- -- 52
2020-10-31 17:00:00 23.4 11 Oeste 19 Sudoeste 0 -- -- 47
2020-10-31 16:00:00 24 13 Oeste 21 Oeste 0 -- -- 47
2020-10-31 15:00:00 24.1 10 Sudoeste 17 Sudoeste 0 -- -- 51
2020-10-31 14:00:00 23 6 Sudoeste 12 Sudoeste 0 -- -- 54
2020-10-31 13:00:00 21.5 6 Sudoeste 14 Sudoeste 0 -- -- 57
2020-10-31 12:00:00 21 6 Sudeste 13 Sudeste 0 -- -- 56
2020-10-31 11:00:00 19.2 3 Nordeste 9 Nordeste 0 -- -- 62
2020-10-31 10:00:00 17.2 3 Sur 6 Sudeste 0 -- -- 73
2020-10-31 09:00:00 14.1 2 Nordeste 5 Nordeste 0 -- -- 84
2020-10-31 08:00:00 11.9 3 Oeste 9 Este 0 -- -- 87
2020-10-31 07:00:00 13.7 3 Nordeste 8 Nordeste 0 -- -- 79
2020-10-31 06:00:00 12.5 3 Oeste 9 Nordeste 0 -- -- 85
2020-10-31 05:00:00 12.6 0 Calma 6 Oeste 0 -- -- 86
2020-10-31 04:00:00 13.8 4 Este 8 Nordeste 0 -- -- 80
2020-10-31 03:00:00 13.3 5 Oeste 8 Sudoeste 0 -- -- 81
2020-10-31 02:00:00 14.6 4 Nordeste 8 Este 0 -- -- 76
2020-10-31 01:00:00 16 2 Sudeste 6 Este 0 -- -- 70
2020-10-31 00:00:00 16.4 4 Nordeste 8 Este 0 -- -- 69
2020-10-30 23:00:00 17.4 5 Nordeste 13 Nordeste 0 -- -- 63
2020-10-30 22:00:00 18 10 Nordeste 14 Nordeste 0 -- -- 61
2020-10-30 21:00:00 18.4 9 Nordeste 13 Nordeste 0 -- -- 60
2020-10-30 20:00:00 18.3 8 Nordeste 12 Nordeste 0 -- -- 63
2020-10-30 19:00:00 18.7 8 Nordeste 12 Nordeste 0 -- -- 64
2020-10-30 18:00:00 21 8 Este 15 Este 0 -- -- 57
2020-10-30 17:00:00 22.2 12 Este 17 Nordeste 0 -- -- 51
2020-10-30 16:00:00 22.6 12 Este 19 Sudeste 0 -- -- 48
2020-10-30 15:00:00 22.2 10 Este 22 Este 0 -- -- 52
2020-10-30 14:00:00 21.3 15 Este 27 Este 0 -- -- 54
2020-10-30 13:00:00 20.1 18 Este 32 Este 0 -- -- 57
2020-10-30 12:00:00 19 17 Este 28 Este 0 -- -- 61
2020-10-30 11:00:00 17.5 15 Este 25 Este 0 -- -- 66
2020-10-30 10:00:00 15.1 14 Nordeste 22 Nordeste 0 -- -- 73
2020-10-30 09:00:00 13.3 14 Nordeste 21 Nordeste 0 -- -- 77
2020-10-30 08:00:00 12.3 14 Nordeste 25 Nordeste 0 -- -- 80
2020-10-30 07:00:00 12.2 16 Nordeste 23 Nordeste 0 -- -- 81
2020-10-30 06:00:00 12.3 12 Nordeste 20 Nordeste 0 -- -- 81
2020-10-30 05:00:00 12.5 11 Nordeste 19 Nordeste 0 -- -- 81
2020-10-30 04:00:00 13.3 12 Nordeste 18 Este 0 -- -- 78
2020-10-30 03:00:00 13.4 13 Nordeste 18 Nordeste 0 -- -- 77
2020-10-30 02:00:00 13.7 12 Nordeste 16 Nordeste 0 -- -- 77
2020-10-30 01:00:00 14 8 Nordeste 18 Este 0 -- -- 77
2020-10-30 00:00:00 14.3 10 Nordeste 19 Nordeste 0 -- -- 77
2020-10-29 23:00:00 14.4 11 Nordeste 19 Nordeste 0 -- -- 79
2020-10-29 22:00:00 15.1 10 Nordeste 17 Nordeste 0 -- -- 78
2020-10-29 21:00:00 15.7 12 Nordeste 20 Este 0 -- -- 76
2020-10-29 20:00:00 16.3 12 Nordeste 17 Nordeste 0 -- -- 72
2020-10-29 19:00:00 17 10 Nordeste 22 Este 0 -- -- 71
2020-10-29 18:00:00 19 15 Este 22 Este 0 -- -- 63
2020-10-29 17:00:00 20.1 13 Este 21 Este 0 -- -- 60
2020-10-29 16:00:00 20.2 13 Este 23 Nordeste 0 -- -- 60
2020-10-29 15:00:00 19.5 12 Nordeste 23 Nordeste 0 -- -- 63
2020-10-29 14:00:00 19.4 13 Este 27 Este 0 -- -- 66
2020-10-29 13:00:00 18.4 16 Este 28 Este 0 -- -- 69
2020-10-29 12:00:00 17.5 16 Este 30 Este 0 -- -- 75
2020-10-29 11:00:00 16 19 Este 26 Este 0 -- -- 82
2020-10-29 10:00:00 15.1 14 Este 24 Este 0 -- -- 89
2020-10-29 09:00:00 13.5 0 Calma 3 Este 0 -- -- 95
2020-10-29 08:00:00 13.4 0 Calma -- -- 0 -- -- 95
2020-10-29 07:00:00 13.6 0 Calma -- -- 0 -- -- 95
2020-10-29 06:00:00 13.8 0 Calma 9 Nordeste 0 -- -- 94
2020-10-29 05:00:00 13.9 4 Nordeste 13 Este 0 -- -- 95
2020-10-29 04:00:00 13.8 6 Norte 13 Este 0 -- -- 95
2020-10-29 03:00:00 13.9 0 Calma 12 Norte 0 -- -- 95
2020-10-29 02:00:00 14.2 9 Norte 13 Norte 0 -- -- 94
2020-10-29 01:00:00 13.9 5 Nordeste 8 Nordeste 0 -- -- 95
2020-10-29 00:00:00 14.5 0 Calma 4 Nordeste 0 -- -- 96
2020-10-28 23:00:00 14.2 3 Nordeste 5 Sudeste 0 -- -- 95
2020-10-28 22:00:00 14.3 0 Calma 5 Nordeste 0 -- -- 94
2020-10-28 21:00:00 14 4 Nordeste 8 Este 0 -- -- 94
2020-10-28 20:00:00 15 2 Este 4 Sudeste 0 -- -- 90
2020-10-28 19:00:00 15.8 3 Norte 4 Norte 0 -- -- 90
2020-10-28 18:00:00 16.1 3 Oeste 18 Oeste 0 -- -- 89
2020-10-28 17:00:00 16.3 12 Oeste 18 Oeste 0 -- -- 88
2020-10-28 16:00:00 16.4 8 Sudoeste 14 Sudoeste 0 -- -- 91
2020-10-28 15:00:00 15.7 4 Sur 12 Sur 0 -- -- 93
2020-10-28 14:00:00 15.3 5 Sudoeste 9 Sur 0.6 -- -- 96
2020-10-28 13:00:00 14.7 5 Sur 11 Sur 0.2 -- -- 96
2020-10-28 12:00:00 14.2 7 Sur 12 Sur 0.6 -- -- 95
2020-10-28 11:00:00 13.5 5 Sur 10 Sur 0.4 -- -- 96
2020-10-28 10:00:00 13.1 6 Sudeste 10 Sudeste 0.4 -- -- 95
2020-10-28 09:00:00 12.7 0 Calma 2 Sudeste 1 -- -- 94
2020-10-28 08:00:00 12.5 0 Calma 4 Nordeste 0 -- -- 94
2020-10-28 07:00:00 12.7 0 Calma 2 Sudeste 0.2 -- -- 93
2020-10-28 06:00:00 12.6 2 Sudeste 3 Este 0 -- -- 93
2020-10-28 05:00:00 12.7 0 Calma 5 Sudoeste 0 -- -- 93
2020-10-28 04:00:00 12.6 4 Sudoeste 6 Sudoeste 0 -- -- 93
2020-10-28 03:00:00 12.8 3 Oeste 12 Oeste 0 -- -- 91
2020-10-28 02:00:00 13.1 5 Oeste 15 Oeste 0 -- -- 87
2020-10-28 01:00:00 13.2 9 Oeste 17 Oeste 0 -- -- 85
2020-10-28 00:00:00 13.5 4 Sudoeste 7 Sudoeste 0 -- -- 82